Regional Weather Roundup
Issued by NWS

Home | Current Version | Previous Version | Text Only | Print | Product List | Glossary On
Versions: 1 2 3 4 5 6 7 8 9 10 11 12 13 14 15 16 17 18 19 20 21 22 23 24 25 26 27 28 29 30 31 32 33 34 35 36 37 38 39 40 41 42 43 44 45 46 47 48 49 50
000
ASUS45 KCYS 230010
RWRWY

WYOMING REGIONAL WEATHER ROUNDUP
NATIONAL WEATHER SERVICE CHEYENNE WY
600 PM MDT THU AUG 22 2019

NOTE:  "FAIR" INDICATES FEW OR NO CLOUDS BELOW 12,000 FEET
WITH NO SIGNIFICANT WEATHER AND/OR OBSTRUCTIONS TO VISIBILITY.

WYZ001-230100-
...YELLOWSTONE NATIONAL PARK...

CITY           SKY/WX    TMP DP  RH WIND       PRES   REMARKS
LK YELLOWSTONE   N/A     60  38  43 W5        30.12F
6HR MIN TEMP:  60; 6HR MAX TEMP:  68;

W YELLOWSTONE  NOT AVBL

$$
WYZ002>013-054>058-071-098>099-230100-
...NORTHERN WYOMING...

CITY           SKY/WX    TMP DP  RH WIND       PRES   REMARKS
JACKSON        CLOUDY    73  39  29 SW3       29.98F
CODY           CLOUDY    69  50  50 N7        29.92R
GREYBULL       CLOUDY    83  47  28 NW40G64   29.73R
6HR MIN TEMP:  83; 6HR MAX TEMP:  93;

WORLAND        CLOUDY    83  52  34 N26G44    29.75R SQUALL
6HR MIN TEMP:  83; 6HR MAX TEMP:  93;

SHERIDAN       CLOUDY    87  48  25 NW17      29.73S
6HR MIN TEMP:  86; 6HR MAX TEMP:  98;

BUFFALO        CLOUDY    84  47  27 NW10      29.80S
6HR MIN TEMP:  84; 6HR MAX TEMP:  93; 6HR PCP: TRACE;

GILLETTE       SUNNY     86  57  37 SE28G38   29.77F
6HR MIN TEMP:  80; 6HR MAX TEMP:  89;

HULETT         FAIR      82  57  42 S9        29.84S
NEWCASTLE      FAIR      81  50  34 SE22G31   29.85S

$$
WYZ014>020-022>026-101>103-230100-
...CENTRAL WYOMING...

CITY           SKY/WX    TMP DP  RH WIND       PRES   REMARKS
BIG PINEY      PTSUNNY   74  30  19 W13G23    30.00F
6HR MIN TEMP:  70; 6HR MAX TEMP:  80;

PINEDALE       CLOUDY    77  25  14 S7        30.01S
DUBOIS         FAIR      73  32  21 E8        30.01F
LANDER         CLOUDY    83  30  14 W12       29.87R
6HR MIN TEMP:  78; 6HR MAX TEMP:  88;

RIVERTON       CLOUDY    85  30  13 SW22G32   29.85S
6HR MIN TEMP:  77; 6HR MAX TEMP:  88;

CASPER         CLOUDY    88  27  11 W17G24    29.83R
6HR MIN TEMP:  85; 6HR MAX TEMP:  95;

DOUGLAS        PTSUNNY   88  50  27 S21G29    29.84F
6HR MIN TEMP:  82; 6HR MAX TEMP:  90;


$$
WYZ021-027>030-104>119-230100-
...SOUTHERN WYOMING...

CITY           SKY/WX    TMP DP  RH WIND       PRES   REMARKS
EVANSTON       PTSUNNY   78  27  15 W21G28    30.02S
6HR MIN TEMP:  76; 6HR MAX TEMP:  83;

KEMMERER       MOSUNNY   75  25  15 W22G32    30.03R
FORT BRIDGER   NOT AVBL
ROCK SPRINGS   CLOUDY    82  22  11 NW14G22   29.97S
6HR MIN TEMP:  79; 6HR MAX TEMP:  86;

DIXON          FAIR      80  17   9 S20G26    30.01S
RAWLINS        CLOUDY    81  26  13 W5        29.98F
6HR MIN TEMP:  79; 6HR MAX TEMP:  91; 6HR PCP: TRACE;

SARATOGA       FAIR      77  28  16 E6        30.04F
LARAMIE        CLOUDY    74  32  21 SW25G31   30.07R
6HR MIN TEMP:  73; 6HR MAX TEMP:  86; 6HR PCP: TRACE;

CHEYENNE       PTSUNNY   74  43  32 E16G26    30.01F
6HR MIN TEMP:  73; 6HR MAX TEMP:  83; 6HR PCP: TRACE;

TORRINGTON     MOSUNNY   82  64  54 SE26G33   29.83F
6HR MIN TEMP:  81; 6HR MAX TEMP:  87;

PINE BLUFFS    TSTM      63  52  67 CALM      30.00R

$$



USA.gov is the U.S. government's official web portal to all federal, state and local government web resources and services.